This is the latest recevied weather packets stored in our database for station/object AE6BH. If no packets are shown the sender has not sent any weather packets the latest 10 day(s).
| Time | Temp. | Humidity | Pressure | Rain* | Wind** | Luminosity | Snow |
|---|---|---|---|---|---|---|---|
| 1778108973 | 20.56° C | 53% | 1016.3 hPa | 0 mm | - | 77 W/m² | - |
| 1778108669 | 20.56° C | 53% | 1016.3 hPa | 0 mm | - | 93 W/m² | - |
| 1778108366 | 20° C | 54% | 1016.5 hPa | 0 mm | - | 68 W/m² | - |
| 1778108063 | 20.56° C | 53% | 1016.3 hPa | 0 mm | - | 97 W/m² | - |
| 1778107760 | 20.56° C | 52% | 1016.6 hPa | 0 mm | - | 64 W/m² | - |
| 1778107457 | 20° C | 54% | 1016.4 hPa | 0 mm | - | 154 W/m² | - |
| 1778107153 | 20.56° C | 53% | 1016.4 hPa | 0 mm | - | 185 W/m² | - |
| 1778106849 | 20.56° C | 53% | 1016.5 hPa | 0 mm | - | 252 W/m² | - |
| 1778106546 | 21.11° C | 51% | 1016.5 hPa | 0 mm | - | 583 W/m² | - |
| 1778106242 | 21.11° C | 50% | 1016.5 hPa | 0 mm | - | 604 W/m² | - |
| 1778105940 | 21.67° C | 51% | 1016.5 hPa | 0 mm | - | 618 W/m² | - |
| 1778105637 | 21.11° C | 51% | 1016.6 hPa | 0 mm | - | 650 W/m² | - |
| 1778105334 | 21.67° C | 51% | 1016.7 hPa | 0 mm | - | 631 W/m² | - |
| 1778105030 | 21.67° C | 51% | 1016.8 hPa | 0 mm | - | 640 W/m² | - |
| 1778104727 | 21.67° C | 52% | 1016.6 hPa | 0 mm | - | 660 W/m² | - |
| 1778104422 | 21.67° C | 52% | 1016.7 hPa | 0 mm | - | 661 W/m² | - |
| 1778104118 | 21.67° C | 52% | 1016.6 hPa | 0 mm | - | 661 W/m² | - |
| 1778103816 | 21.67° C | 52% | 1016.7 hPa | 0 mm | - | 675 W/m² | - |
| 1778103514 | 21.67° C | 52% | 1016.8 hPa | 0 mm | - | 673 W/m² | - |
| 1778103211 | 22.22° C | 51% | 1016.9 hPa | 0 mm | - | 683 W/m² | - |
| 1778102908 | 21.67° C | 52% | 1017 hPa | 0 mm | - | 703 W/m² | - |
| 1778102604 | 22.22° C | 51% | 1017.1 hPa | 0 mm | - | 698 W/m² | - |
| 1778102299 | 22.22° C | 50% | 1016.9 hPa | 0 mm | - | 710 W/m² | - |
| 1778101995 | 22.22° C | 51% | 1016.8 hPa | 0 mm | - | 738 W/m² | - |
| 1778101693 | 22.78° C | 50% | 1017 hPa | 0 mm | - | 743 W/m² | - |
* Rain latest hour (hover to see other rain measurements)
** Current wind speed in m/s (hover to see current wind gust speed)